Weather in Sredneuranskiy

Russia / Orenburg Oblast     52°23′56″N   53°57′33″E
temp.,
°C
wind,
m/s
gust,
m/s
humid.,
%
clouds,
%
prec.,
mm/h
press.,
hPa
HPBL,
m
7 march, sun
sun723:00−8ne1194100 0.0 101321
02:00−8nne3496100 0.8 1011127
05:00−9nne4794100 1.3 1010219
08:00−12n4687100 0.0 1011138
11:00−12nnw368687 0.0 1012206
14:00−10nw34840 0.0 1013249
17:00−10w23910 0.0 1013105
20:00−14sw44910 0.0 101452
8 march, mon
mon823:00−13ssw599444 0.1 1014200
02:00−13ssw5119697 0.1 1012244
05:00−10ssw9179299 0.2 1010538
08:00−8ssw101891100 0.4 1007789
11:00−6sw121992100 0.8 10061017
14:00−3sw111591100 0.6 10071067
17:00−3sw91489100 0.8 10081081
20:00−3sw71394100 0.2 1008624
9 march, tue
tue923:00−3ssw61196100 0.8 1009657
02:00−3ssw81495100 0.8 1007708
05:00−3sw81595100 1.4 1006684
08:00−3sw81495100 0.7 1006732
11:00−3w71092100 1.9 1008741
14:00−5wnw3582100 0.0 1009448
17:00−5nnw1183100 0.0 1009181
20:00−7nne3693100 0.3 1007187
10 march, wed
wed1023:00−9nnw4796100 1.7 1007269
02:00−11nw379697 0.5 1007180
05:00−15wnw479889 0.5 1009118
08:00−17wnw359996 0.0 101189
11:00−15wnw479698 0.1 1012268
14:00−14wnw4794100 0.0 1013362
17:00−13wnw5792100 0.1 1014539
20:00−17nw499699 0.1 1016193
11 march, thu
thu1123:00−19wnw479898 0.1 1018193
02:00−21nw2310098 0.1 101920
05:00−22wnw2210093 0.1 102121
08:00−25nw2310092 0.1 102237
11:00−23wnw349792 0.1 1024182
14:00−21wnw359449 0.0 1025250
17:00−20w369225 0.0 1026335
20:00−24wsw45967 0.0 102772